Location: Burgberg
(50.1428°N, 11.0671°E)
Time: 16:34:12
(UTC+00:00)

Cosmos 2278 Rocket - Pass Details

Date: 26 January 2020
Orbit: 841 x 845 km, 71.0° (Epoch: 25 February)

Event Time Altitude Azimuth Distance (km) Brightness Sun altitude
Exits shadow 05:40:05 - 334° (NNW) 3,131 4.8 -12.5°
Reaches altitude 10° 05:41:56 10° 341° (NNW) 2,473 4.3 -12.2°
Maximum altitude 05:47:15 40° 50° (NE) 1,235 3.4 -11.4°
Drops below altitude 10° 05:52:33 10° 119° (ESE) 2,462 6.1 -10.6°
Sets 05:55:09 0° 127° (SE) 3,394 6.9 -10.2°
